Location: Dresden
(51.0483°N, 13.7137°E)
Time: 07:15:21
(UTC+01:00)

ISS - Pass Details

Date: 13 November 2017
Orbit: 401 x 407 km, 51.6° (Epoch: 18 November)

Event Time Altitude Azimuth Distance (km) Brightness Sun altitude
Exits shadow 06:35:32 - 271° (W) 1,604 -1.4 -7.0°
Reaches altitude 10° 06:35:59 10° 266° (W) 1,456 -1.6 -6.9°
Maximum altitude 06:38:29 21° 216° (SW) 979 -2.0 -6.5°
Drops below altitude 10° 06:40:59 10° 166° (SSE) 1,450 -0.5 -6.2°
Sets 06:43:22 0° 149° (SSE) 2,305 1.0 -5.8°
